Regional Weather Roundup
Issued by NWS Kansas City/Pleasant Hill, MO

Home | Current Version | Previous Version | Text Only | Print | Product List | Glossary On
Versions: 1 2 3 4 5 6 7 8 9 10 11 12 13 14 15 16 17 18 19 20 21 22 23 24 25 26 27 28 29 30 31 32 33 34 35 36 37 38 39 40 41 42 43 44 45 46 47 48 49 50
000
ASUS43 KEAX 281104
RWREAX

WEATHER ROUNDUP FOR EASTERN KANSAS AND NORTHWEST MISSOURI
NATIONAL WEATHER SERVICE KANSAS CITY/PLEASANT HILL MO
500 AM CST WED JAN 28 2015

KSZ040-057-103>105-MOZ028-029-037-043-281200-
...KANSAS CITY METROPOLITAN AREA...

CITY           SKY/WX    TMP DP  RH WIND       PRES   REMARKS
K.C. INTL      CLEAR     42  30  62 SE14      29.95F WCI  35
K.C. DOWNTOWN  CLEAR     43  29  57 SE5       29.97F
LEES SUMMIT    CLEAR     42  29  59 SE10G17   29.97F
OLATHE - IXD   CLEAR     42  30  62 S13       29.95F
OLATHE - OJC   CLEAR     40  30  67 S13       29.95F WCI  32
LAWRENCE       CLEAR     35  28  75 SE8       29.94F WCI  29

$$

MOZ001>008-011>017-020>025-030>033-038>040-044>046-053-054-281200-
...NORTHERN AND CENTRAL MISSOURI...

CITY           SKY/WX    TMP DP  RH WIND       PRES   REMARKS
ST. JOSEPH     CLEAR     38  30  73 SE10      29.95F WCI  31
MOSBY          SUNNY     37  32  81 SE6       29.98F WCI  33
WARRENSBURG    CLEAR     41  32  70 SE12      30.00S WCI  34
WHITEMAN AFB   CLEAR     42  31  66 S13       30.00F WCI  35
CLINTON        CLEAR     39  32  75 SE5       30.03F
SEDALIA        CLEAR     37  30  75 SE12      30.05F WCI  29
WARSAW         NOT AVBL
MARSHALL       CLEAR     37  32  81 E10       30.05F WCI  30
CHILLICOTHE      N/A     33  29  85 SE8       30.04F WCI  26
MOBERLY        CLEAR     32  27  80 E14       30.10F FOG     WCI  22
KIRKSVILLE     CLEAR     28  27  96 SE13      30.10F FOG     WCI  17

$$

MOZ041-047>049-056>058-063>065-088>090-097-281200-
...EASTERN AND SOUTHERN MISSOURI...

CITY           SKY/WX    TMP DP  RH WIND       PRES   REMARKS
ST. LOUIS INTL CLEAR     31  26  82 SE10      30.23S WCI  22
SPIRIT OF STL  CLEAR     29  26  89 E5        30.22S WCI  24
COLUMBIA       CLEAR     31  28  89 SE14      30.10F WCI  21
JEFFERSON CITY CLEAR     33  28  81 E12       30.13F WCI  24
MEXICO         CLEAR    N/A N/A N/A SE10      30.14F
HANNIBAL       CLEAR     30  27  86 SE9       30.16F WCI  22
ROLLA          CLEAR     32  27  81 SE12      30.12F WCI  23
LEBANON        CLEAR     37  32  81 SE13G20   30.10S WCI  29
OSAGE BEACH    CLEAR     37  30  75 SE10G18   30.09F WCI  30
SPRINGFIELD    CLEAR     40  34  79 SE22      30.06F WCI  30
NEVADA         CLEAR     45  32  61 S14       30.01F
JOPLIN         CLEAR     50  31  48 S14       30.02F
WEST PLAINS    CLEAR     33  28  81 SE7       30.19S WCI  27

$$

IAZ060-094-KSZ022-034>040-054-083-096-NEZ052-066-093-281200-
...KANSAS...SOUTHEAST NEBRASKA AND IOWA...

CITY           SKY/WX    TMP DP  RH WIND       PRES   REMARKS
TOPEKA         CLEAR     36  28  73 SE5       29.93F WCI  32
MANHATTAN      CLEAR     34  31  88 CALM      29.89F
EMPORIA        CLEAR     40  33  76 S15       29.91F WCI  32
CHANUTE        CLEAR     42  34  73 S8        29.98S
WICHITA        CLEAR     40  33  76 S6        29.92F
OMAHA          PTCLDY    35  29  78 SE12      29.91F WCI  27
LINCOLN        CLEAR     35  28  75 E7        29.88F WCI  29
FALLS CITY     PTCLDY    35  28  75 E8        29.91F WCI  29
LAMONI         PTCLDY    30  27  88 SE8       30.01F WCI  22
DES MOINES     CLOUDY    31  28  89 SE14      30.06F FOG     WCI  21

$$



USA.gov is the U.S. government's official web portal to all federal, state and local government web resources and services.